カタログに戻る

STARLINK-37237

運用中通信VLEO
NORAD 69185·PAYLOAD·🇺🇸 United States

打ち上げ May 25, 2026 から Cape Canaveral Space Force Station

Loading…

次のパス (今後24時間)

TLE

最新Source: CelesTrak SupGP

元期: Sep 14, 2026, 23:08 UTC

1 69185C 26114D   26257.96437500  .00005582  00000+0  16508-3 0  2578
2 69185  53.1560 139.8839 0001202  87.1379 233.6188 15.34354223    16

AllMySatでSTARLINK-37237をリアルタイム追跡

Download on the App Store